Погода в Прокопьевке

Россия / Республика Коми     59°16′49″N   49°40′37″E
темп.,
°C
ветер,
м/с
пор.,
м/с
влажн.,
%
обл.,
%
осадки,
мм/ч
давл.,
гПа
погр.,
м
13 мая, чт
чт1300:00+14юв11543 0.0 102610
03:00+13юв11590 0.0 102710
06:00+17ююв13590 0.0 1026109
09:00+23ююв24490 0.0 1026612
12:00+26ю35345 0.0 10242674
15:00+26ю46315 0.0 10232677
18:00+22ю264875 0.0 1022157
21:00+17ююв236178 0.0 102237
14 мая, пт
пт1400:00+16ююв256898 0.0 1021102
03:00+16ююв31171100 0.2 1021298
06:00+17ю4117597 0.3 1020473
09:00+21ююз58565 0.4 10191064
12:00+24юз575243 0.1 10191844
15:00+24зюз5742100 0.1 10192119
18:00+21з2363100 0.0 1018102
21:00+16зюз11795 0.0 101911
15 мая, сб
сб1500:00+15ююз118497 0.0 101911
03:00+14ю11875 0.3 101911
06:00+18ююв237696 0.0 1018185
09:00+23ю3460100 0.0 1018893
12:00+26ю464491 0.0 10161464
15:00+27ююз5843100 0.0 10151719
18:00+25ююз510455 0.0 1014963
21:00+20ююз515545 0.0 1014819
16 мая, вс
вс1600:00+18ююз414650 0.0 1014555
03:00+15ююз3107953 0.0 1014245
06:00+18ююз4107152 0.0 1014369
09:00+23юз5115499 0.0 10131212
12:00+25юз61144100 0.0 10132079
15:00+26юз61339100 0.0 10122881
18:00+23з4948100 0.0 1012854
21:00+15ююз3878100 0.3 1014230
17 мая, пн
пн1700:00+13юз27870 0.0 1014135
03:00+13юз25931 0.0 101498
06:00+16з378138 0.3 1015282
09:00+20зюз46634 0.8 1015868
12:00+23зсз454798 0.4 10162080
15:00+20сз2659100 0.4 1017428
18:00+20сз2558100 0.0 1017299
21:00+15сз2273100 0.0 101922